Port Clinton Carl R Keller Fi, OH

7:50 PM EDT on March 26, 2017 (GMT -0400)
Keller

Weather History for KPCW - February, 2014

Change the Weather History Date:

Tuesday, February 18, 2014

  Actual Average (KTTF) Record (KTTF)
Temperature  
Mean Temperature 35 °F -  
Max Temperature 45 °F 34 °F 66 °F (2017)
Min Temperature 26 °F 20 °F -7 °F (1979)
Degree Days  
Heating Degree Days 30    
Moisture  
Dew Point 25 °F    
Average Humidity 73    
Maximum Humidity 93    
Minimum Humidity 49    
Precipitation  
Precipitation 0.00 in - - ()
Sea Level Pressure  
Sea Level Pressure 29.87 in    
Wind  
Wind Speed 17 mph (SW)    
Max Wind Speed 25 mph    
Max Gust Speed 30 mph    
Visibility 8 miles    
Events Rain , Snow    
Averages and records for this station are not official NWS values.
T = Trace of Precipitation, MM = Missing Value Source: NWS Daily Summary

Daily Weather History Graph

Daily Weather History Graph

Search for Another Location

Airport or City:

Trip Planner

Search our weather history database for the weather conditions in past years. The results will help you decide how hot, cold, wet, or windy it might be!

Date:

Astronomy

Feb. 18, 2014 Rise Set
Actual Time 7:22 AM EST 6:08 PM EST
Civil Twilight 6:54 AM EST 6:37 PM EST
Nautical Twilight 6:21 AM EST 7:09 PM EST
Astronomical Twilight 5:49 AM EST 7:41 PM EST
Moon 10:04 PM EST (2/18) 8:51 AM EST (2/18)
Length of Visible Light 11h 42m
Length of Day
10h 46m
Waning Gibbous, 87% of the Moon is Illuminated
Feb 18
Waning Gibbous
Feb 22
Last Quarter
Mar 1
New
Mar 8
First Quarter
Mar 16
Full

Hourly Weather History & Observations

Time (EST) Temp. Windchill Dew Point Humidity Pressure Visibility Wind Dir Wind Speed Gust Speed Precip Events Conditions
12:14 AM 32.0 °F 20.5 °F 28.4 °F 87% 29.65 in 4.0 mi SW 18.4 mph - N/A Snow Light Snow
12:25 AM 30.2 °F 17.8 °F 28.4 °F 93% 29.65 in 4.0 mi SW 19.6 mph - N/A Snow Light Snow
12:54 AM 30.2 °F 16.8 °F 26.6 °F 86% 29.67 in 5.0 mi WSW 23.0 mph - N/A Snow Light Snow
1:14 AM - - - N/A% - 3.0 mi WSW 19.6 mph 29.9 mph N/A   Overcast
1:34 AM 30.2 °F 17.4 °F 26.6 °F 86% 29.67 in 2.0 mi WSW 20.7 mph - N/A Snow Light Snow
1:44 AM 30.2 °F 16.2 °F 26.6 °F 86% 29.68 in 2.0 mi WSW 25.3 mph - N/A Snow Light Snow
2:12 AM 30.2 °F 18.9 °F 26.6 °F 86% 29.69 in 1.5 mi WSW 16.1 mph - N/A Snow Light Snow
2:34 AM 28.4 °F 16.2 °F 26.6 °F 93% 29.72 in 1.5 mi WSW 17.3 mph - N/A Snow Light Snow
2:39 AM 28.4 °F 15.8 °F 26.6 °F 93% 29.72 in 1.5 mi WSW 18.4 mph - N/A Snow Light Snow
3:14 AM 28.4 °F 15.1 °F 26.6 °F 93% 29.73 in 1.0 mi West 20.7 mph - N/A Snow Light Snow
3:26 AM 28.4 °F 16.2 °F 26.6 °F 93% 29.74 in 1.8 mi West 17.3 mph - N/A Snow Light Snow
3:54 AM 28.4 °F 16.2 °F 24.8 °F 86% 29.77 in 3.0 mi West 17.3 mph - N/A Snow Light Snow
4:09 AM 28.4 °F 14.4 °F 24.8 °F 86% 29.78 in 3.0 mi West 23.0 mph - N/A Snow Light Snow
4:29 AM 28.4 °F 16.6 °F 24.8 °F 86% 29.79 in 2.5 mi WSW 16.1 mph - N/A Snow Light Snow
4:38 AM 26.6 °F 13.4 °F 24.8 °F 93% 29.80 in 2.0 mi WSW 18.4 mph - N/A Snow Light Snow
5:04 AM 28.4 °F 16.2 °F 23.0 °F 80% 29.82 in 4.0 mi West 17.3 mph - N/A Snow Light Snow
5:34 AM 28.4 °F 16.2 °F 21.2 °F 74% 29.85 in 10.0 mi West 17.3 mph - N/A Rain Light Freezing Rain
5:54 AM 28.0 °F 14.6 °F 22.1 °F 78% 29.86 in 8.0 mi West 20.7 mph - N/A Rain Light Freezing Rain
6:14 AM 28.4 °F 15.4 °F 21.2 °F 74% 29.88 in 10.0 mi West 19.6 mph - N/A Rain Light Freezing Rain
6:22 AM 28.4 °F 14.7 °F 21.2 °F 74% 29.88 in 8.0 mi WSW 21.9 mph - N/A Snow Light Snow
6:54 AM 28.4 °F 16.6 °F 21.2 °F 74% 29.91 in 8.0 mi WSW 16.1 mph - N/A Snow Light Snow
7:06 AM 28.4 °F 16.6 °F 21.2 °F 74% 29.91 in 8.0 mi West 16.1 mph - N/A Snow Light Snow
7:32 AM 28.4 °F 16.6 °F 21.2 °F 74% 29.93 in 10.0 mi WSW 16.1 mph - N/A Rain Light Freezing Rain
7:54 AM 28.0 °F 17.0 °F 21.0 °F 75% 29.94 in 10.0 mi WSW 13.8 mph - N/A Rain Light Freezing Rain
8:14 AM 28.4 °F 17.0 °F 21.2 °F 74% 29.96 in 10.0 mi WSW 15.0 mph - N/A   Overcast
8:33 AM 28.4 °F 17.5 °F 21.2 °F 74% 29.97 in 10.0 mi WSW 13.8 mph - N/A   Overcast
8:54 AM 28.0 °F 17.5 °F 21.0 °F 75% 29.97 in 10.0 mi WSW 12.7 mph - N/A   Overcast
9:14 AM 28.4 °F 18.0 °F 21.2 °F 74% 29.99 in 10.0 mi WSW 12.7 mph - N/A   Overcast
9:34 AM 28.4 °F 17.5 °F 21.2 °F 74% 30.00 in 10.0 mi WSW 13.8 mph - N/A   Overcast
9:54 AM 28.4 °F 17.0 °F 21.2 °F 74% 30.02 in 10.0 mi SW 15.0 mph - N/A   Overcast
10:14 AM 28.4 °F 18.0 °F 21.2 °F 74% 30.02 in 10.0 mi SW 12.7 mph - N/A   Mostly Cloudy
10:34 AM 30.2 °F 20.2 °F 21.2 °F 69% 30.01 in 10.0 mi WSW 12.7 mph - N/A   Mostly Cloudy
10:54 AM 30.0 °F 18.7 °F 21.0 °F 69% 30.03 in 10.0 mi SW 16.1 mph - N/A   Overcast
11:14 AM 30.2 °F 19.3 °F 21.2 °F 69% 30.04 in 10.0 mi SSW 15.0 mph - N/A   Overcast
11:34 AM 30.2 °F 18.1 °F 21.2 °F 69% 30.04 in 10.0 mi SSW 18.4 mph - N/A   Overcast
11:54 AM 30.2 °F 18.1 °F 21.2 °F 69% 30.03 in 10.0 mi SSW 18.4 mph - N/A   Mostly Cloudy
12:14 PM 30.2 °F 18.5 °F 21.2 °F 69% 30.03 in 10.0 mi SSW 17.3 mph - N/A   Partly Cloudy
12:34 PM 32.0 °F 20.8 °F 24.8 °F 75% 30.02 in 10.0 mi SSW 17.3 mph - N/A   Mostly Cloudy
12:54 PM 33.8 °F 23.5 °F 24.8 °F 70% 30.01 in 10.0 mi SW 16.1 mph - N/A   Mostly Cloudy
1:03 PM 33.8 °F 23.5 °F 24.8 °F 70% 30.01 in 9.0 mi SSW 16.1 mph - N/A   Mostly Cloudy
1:34 PM 33.8 °F 23.9 °F 24.8 °F 70% 30.02 in 10.0 mi SSW 15.0 mph - N/A   Partly Cloudy
1:54 PM 34.0 °F 23.8 °F 26.1 °F 73% 30.01 in 9.0 mi SSW 16.1 mph - N/A   Clear
2:14 PM 35.6 °F 27.5 °F 26.6 °F 70% 29.99 in 10.0 mi SSW 11.5 mph - N/A   Clear
2:34 PM 35.6 °F 28.6 °F 26.6 °F 70% 29.98 in 10.0 mi South 9.2 mph - N/A   Clear
2:54 PM 36.0 °F 28.5 °F 27.1 °F 70% 29.97 in 10.0 mi South 10.4 mph - N/A   Clear
3:14 PM 35.6 °F 27.5 °F 28.4 °F 75% 29.94 in 9.0 mi South 11.5 mph - N/A   Clear
3:34 PM 37.4 °F 29.8 °F 28.4 °F 70% 29.94 in 10.0 mi South 11.5 mph - N/A   Clear
3:54 PM 37.9 °F 30.0 °F 29.1 °F 71% 29.93 in 10.0 mi South 12.7 mph - N/A   Clear
4:14 PM 37.4 °F 29.3 °F 28.4 °F 70% 29.93 in 10.0 mi South 12.7 mph - N/A   Clear
4:34 PM 37.4 °F 29.8 °F 28.4 °F 70% 29.93 in 10.0 mi South 11.5 mph - N/A   Clear
4:54 PM 36.9 °F 29.6 °F 29.1 °F 74% 29.92 in 10.0 mi South 10.4 mph - N/A   Clear
5:14 PM 35.6 °F 27.5 °F 28.4 °F 75% 29.91 in 10.0 mi South 11.5 mph - N/A   Clear
5:34 PM 37.4 °F 28.9 °F 28.4 °F 70% 29.89 in 10.0 mi South 13.8 mph - N/A   Clear
5:54 PM 36.9 °F 28.2 °F 29.1 °F 74% 29.88 in 10.0 mi South 13.8 mph - N/A   Clear
6:14 PM 37.4 °F 29.3 °F 28.4 °F 70% 29.86 in 10.0 mi South 12.7 mph - N/A   Clear
6:34 PM 37.4 °F 28.5 °F 28.4 °F 70% 29.85 in 10.0 mi South 15.0 mph - N/A   Clear
6:54 PM 37.9 °F 29.6 °F 28.0 °F 68% 29.85 in 10.0 mi South 13.8 mph - N/A   Clear
7:14 PM 39.2 °F 30.5 °F 28.4 °F 65% 29.86 in 10.0 mi South 16.1 mph - N/A   Clear
7:34 PM 39.2 °F 30.8 °F 28.4 °F 65% 29.85 in 10.0 mi South 15.0 mph - N/A   Clear
7:54 PM 38.8 °F 30.4 °F 28.0 °F 65% 29.84 in 10.0 mi South 15.0 mph - N/A   Clear
8:14 PM 39.2 °F 29.8 °F 28.4 °F 65% 29.80 in 10.0 mi South 18.4 mph - N/A   Clear
8:34 PM 39.2 °F 29.8 °F 26.6 °F 61% 29.78 in 10.0 mi South 18.4 mph - N/A   Clear
8:54 PM 41.9 °F 35.4 °F 27.1 °F 56% 29.81 in 10.0 mi South 11.5 mph - N/A   Clear
9:14 PM 41.0 °F 33.5 °F 26.6 °F 57% 29.80 in 10.0 mi South 13.8 mph - N/A   Clear
9:34 PM 39.2 °F 32.0 °F 26.6 °F 61% 29.79 in 10.0 mi South 11.5 mph - N/A   Clear
9:53 PM 41.0 °F 34.3 °F 27.1 °F 58% 29.79 in 10.0 mi South 11.5 mph - N/A   Clear
10:14 PM 41.0 °F 34.3 °F 26.6 °F 57% 29.78 in 10.0 mi South 11.5 mph - N/A   Clear
10:34 PM 39.2 °F 32.0 °F 26.6 °F 61% 29.75 in 10.0 mi South 11.5 mph - N/A   Clear
10:53 PM 41.9 °F 35.0 °F 27.1 °F 56% 29.74 in 10.0 mi South 12.7 mph - N/A   Clear
11:14 PM 42.8 °F 37.0 °F 26.6 °F 53% 29.73 in 10.0 mi South 10.4 mph - N/A   Clear
11:34 PM 44.6 °F 39.2 °F 26.6 °F 49% 29.72 in 10.0 mi SSW 10.4 mph - N/A   Clear
11:53 PM 45.0 °F 38.9 °F 27.1 °F 50% 29.71 in 10.0 mi South 12.7 mph - N/A   Clear